{"data":{"norad_id":44209,"epoch":"2026-05-24T11:24:43.250112Z","epoch_age_seconds":110475,"freshness":"FRESH","line1":"1 44209U 19024C   26144.47550058  .00001282  00000+0  68771-4 0  9991","line2":"2 44209  97.4800 148.7251 0001953  98.8805 261.2650 15.16745462391111","mean_motion":15.16745462,"eccentricity":0.0001953,"inclination_deg":97.48,"raan_deg":148.7251,"arg_perigee_deg":98.8805,"mean_anomaly_deg":261.265,"bstar":6.8771e-5,"rev_number":39111,"period_min":94.940122523999,"perigee_km":514.3382058337,"apogee_km":517.03093253863,"semimajor_km":6893.8215691862,"source":"CELESTRAK","updated_at":"2026-05-25T13:37:55.963291Z"}}